Vero Beach, FL

11:56 AM EDT on September 23, 2017 (GMT -0400)
Vero Beach Municipal

Weather History for KVRB - May, 2014

Change the Weather History Date:

Friday, May 16, 2014

  Actual Average Record
Temperature  
Mean Temperature 69 °F 76 °F  
Max Temperature 78 °F 85 °F 95 °F (1995)
Min Temperature 60 °F 68 °F 58 °F (1952)
Degree Days  
Heating Degree Days 0 0  
Month to date heating degree days 0 0  
Since 1 July heating degree days 268 455  
Cooling Degree Days 4 11  
Month to date cooling degree days 192 157  
Year to date cooling degree days 750 615  
Growing Degree Days 20 (Base 50)    
Moisture  
Dew Point 65 °F    
Average Humidity 69    
Maximum Humidity 100    
Minimum Humidity 38    
Precipitation  
Precipitation 0.00 in 0.10 in 3.17 in (1972)
Month to date precipitation 2.56 1.37  
Year to date precipitation 13.08 13.38  
Sea Level Pressure  
Sea Level Pressure 30.02 in    
Wind  
Wind Speed 10 mph (NW)    
Max Wind Speed 21 mph    
Max Gust Speed 27 mph    
Visibility 10 miles    
Events      
T = Trace of Precipitation, MM = Missing Value Source: NWS Daily Summary

Daily Weather History Graph

Daily Weather History Graph

Search for Another Location

Airport or City:

Trip Planner

Search our weather history database for the weather conditions in past years. The results will help you decide how hot, cold, wet, or windy it might be!

Date:

Astronomy

May. 16, 2014 Rise Set
Actual Time 6:32 AM EDT 8:04 PM EDT
Civil Twilight 6:06 AM EDT 8:29 PM EDT
Nautical Twilight 5:36 AM EDT 9:00 PM EDT
Astronomical Twilight 5:04 AM EDT 9:32 PM EDT
Moon 10:09 PM EDT (5/16) 8:12 AM EDT (5/16)
Length of Visible Light 14h 23m
Length of Day
13h 32m
Waning Gibbous, 95% of the Moon is Illuminated
May 16
Waning Gibbous
May 21
Last Quarter
May 28
New
Jun 5
First Quarter
Jun 13
Full

Hourly Weather History & Observations

Time (EDT) Temp. Dew Point Humidity Pressure Visibility Wind Dir Wind Speed Gust Speed Precip Events Conditions
12:53 AM 73.0 °F 73.0 °F 100% 29.96 in 10.0 mi SSW 5.8 mph - N/A   Scattered Clouds
1:24 AM 73.0 °F 73.0 °F 100% 29.96 in 10.0 mi SSW 5.8 mph - N/A   Mostly Cloudy
1:42 AM 73.0 °F 73.0 °F 100% 29.96 in 10.0 mi WSW 6.9 mph - N/A   Overcast
1:53 AM 73.0 °F 73.0 °F 100% 29.96 in 10.0 mi WSW 6.9 mph - N/A   Overcast
2:28 AM 73.0 °F 73.0 °F 100% 29.96 in 10.0 mi West 6.9 mph - N/A   Overcast
2:53 AM 73.0 °F 73.0 °F 100% 29.96 in 10.0 mi WNW 6.9 mph - N/A   Overcast
3:40 AM 72.0 °F 71.1 °F 97% 29.96 in 10.0 mi WNW 5.8 mph - N/A   Overcast
3:53 AM 72.0 °F 72.0 °F 100% 29.95 in 10.0 mi WNW 5.8 mph - N/A   Overcast
4:53 AM 72.0 °F 71.1 °F 97% 29.96 in 10.0 mi WNW 9.2 mph - N/A   Overcast
5:02 AM 72.0 °F 71.1 °F 97% 29.96 in 10.0 mi WNW 9.2 mph - N/A   Overcast
5:53 AM 71.1 °F 70.0 °F 96% 29.96 in 10.0 mi West 9.2 mph - N/A   Overcast
6:17 AM 71.1 °F 70.0 °F 96% 29.97 in 10.0 mi WNW 8.1 mph - N/A   Overcast
6:27 AM 71.1 °F 70.0 °F 96% 29.97 in 10.0 mi WNW 8.1 mph - N/A   Overcast
6:53 AM 71.1 °F 70.0 °F 96% 29.98 in 10.0 mi NW 12.7 mph - N/A   Overcast
7:08 AM 71.1 °F 69.1 °F 93% 30.00 in 10.0 mi NW 13.8 mph - N/A   Overcast
7:15 AM 70.0 °F 69.1 °F 97% 30.00 in 10.0 mi NNW 11.5 mph 19.6 mph N/A   Overcast
7:25 AM 70.0 °F 66.9 °F 90% 30.01 in 10.0 mi NW 16.1 mph - N/A   Overcast
7:46 AM 70.0 °F 66.9 °F 90% 30.01 in 10.0 mi NNW 11.5 mph - N/A   Overcast
7:53 AM 69.1 °F 66.9 °F 93% 30.01 in 10.0 mi NNW 9.2 mph - N/A   Overcast
8:44 AM 69.1 °F 68.0 °F 96% 30.04 in 7.0 mi NNW 12.7 mph - N/A   Overcast
8:53 AM 69.1 °F 66.9 °F 93% 30.04 in 7.0 mi NNW 9.2 mph - N/A   Overcast
9:21 AM 68.0 °F 64.9 °F 90% 30.05 in 10.0 mi NNW 11.5 mph - N/A   Overcast
9:53 AM 69.1 °F 64.0 °F 84% 30.05 in 10.0 mi NW 11.5 mph - N/A   Overcast
10:53 AM 70.0 °F 63.0 °F 78% 30.07 in 10.0 mi North 11.5 mph - N/A   Overcast
11:53 AM 72.0 °F 63.0 °F 73% 30.07 in 10.0 mi NNW 13.8 mph - N/A   Overcast
12:53 PM 75.0 °F 62.1 °F 64% 30.06 in 10.0 mi North 15.0 mph - N/A   Clear
1:53 PM 75.9 °F 61.0 °F 60% 30.06 in 10.0 mi North 12.7 mph - N/A   Clear
2:53 PM 75.9 °F 48.0 °F 37% 30.06 in 10.0 mi North 17.3 mph - N/A   Clear
4:53 PM 75.9 °F 50.0 °F 40% 30.04 in 10.0 mi North 16.1 mph 25.3 mph N/A   Clear
5:53 PM 75.0 °F 52.0 °F 44% 30.04 in 10.0 mi NNE 13.8 mph 23.0 mph N/A   Clear
6:53 PM 73.0 °F 55.9 °F 55% 30.05 in 10.0 mi NNE 11.5 mph - N/A   Clear
7:53 PM 71.1 °F 54.0 °F 55% 30.07 in 10.0 mi NNE 8.1 mph - N/A   Clear
8:53 PM 69.1 °F 55.0 °F 61% 30.08 in 10.0 mi NNE 6.9 mph - N/A   Clear
9:53 PM 68.0 °F 57.0 °F 68% 30.09 in 10.0 mi NNE 5.8 mph - N/A   Clear
10:53 PM 64.9 °F 57.0 °F 75% 30.12 in 10.0 mi North 5.8 mph - N/A   Clear
11:53 PM 63.0 °F 57.9 °F 84% 30.12 in 10.0 mi Calm Calm - N/A   Clear